DW6885 Weather Reports


Display with metric or nautical units.
time (UTC)temp
F
wind
direction
speed
MPH
gust
MPH
rain 1hr
in
rain 24hr
in
rain mn
in
humidity
%
barometer
mb
20140728201401 80 211 2.0 6.0 0.00 0.34 0.34 74 995.4
20140728200548 79 227 1.0 6.0 0.00 0.34 0.34 73 995.8
20140728195802 78 73 0.0 6.0 0.00 0.34 0.34 76 996.0
20140728195549 79 193 2.0 6.0 0.00 0.34 0.34 78 995.9
20140728194307 78 53 0.0 2.0 0.00 0.34 0.34 76 996.2
20140728192804 79 242 1.0 8.0 0.00 0.34 0.34 77 996.6
20140728191301 79 165 1.0 4.0 0.00 0.34 0.34 76 996.5
20140728185705 78 150 1.0 6.0 0.00 0.34 0.34 78 996.8
20140728184554 77 355 2.0 7.0 0.00 0.34 0.34 83 996.8
20140728184207 76 36 0.0 6.0 0.00 0.34 0.34 83 996.8
20140728182702 74 65 0.0 5.0 0.00 0.34 0.34 84 997.0
20140728182548 75 65 0.0 7.0 0.00 0.34 0.34 86 997.1
20140728181549 75 56 2.0 7.0 0.00 0.34 0.34 83 997.2
20140728180550 75 202 1.0 6.0 0.00 0.34 0.34 86 997.2
20140728175703 74 148 0.0 5.0 0.00 0.34 0.34 87 997.3
20140728175548 74 102 2.0 5.0 0.00 0.34 0.34 87 997.3
20140728174205 73 181 0.0 6.0 0.00 0.34 0.34 87 997.5
20140728173550 73 178 0.0 7.0 0.00 0.34 0.34 91 997.5
20140728172701 73 186 1.0 7.0 0.00 0.34 0.34 90 997.7
20140728171549 72 306 0.0 3.0 0.00 0.34 0.34 96 997.9
20140728171105 70 190 0.0 4.0 0.00 0.34 0.34 95 997.9
20140728170547 70 296 1.0 6.0 0.00 0.34 0.34 94 998.1
20140728165604 70 194 0.0 6.0 0.00 0.43 0.34 93 998.4
20140728165548 70 171 2.0 5.0 0.00 0.34 0.34 92 998.4
20140728164551 71 209 1.0 5.0 0.00 0.37 0.34 92 998.5
20140728164304 71 200 0.0 4.0 0.00 0.43 0.34 92 998.5
20140728163549 71 196 1.0 3.0 0.00 0.42 0.34 91 998.4
20140728162707 71 151 0.0 6.0 0.00 0.43 0.34 90 998.4
20140728162549 72 241 2.0 6.0 0.00 0.43 0.34 90 998.5
20140728161103 71 231 1.0 6.0 0.00 0.43 0.34 94 998.4
20140728160551 71 61 1.0 3.0 0.00 0.43 0.34 92 998.5
20140728155702 71 211 1.0 4.0 0.00 0.54 0.34 91 998.5
20140728155548 72 130 0.0 3.0 0.00 0.44 0.34 92 998.5
20140728154548 72 192 0.0 6.0 0.00 0.44 0.34 93 998.5
20140728154005 71 242 1.0 6.0 0.00 0.54 0.34 91 998.6
20140728153549 72 200 1.0 6.0 0.00 0.51 0.34 94 998.6
20140728152505 71 86 1.0 5.0 0.00 0.54 0.34 96 998.7
20140728151004 70 223 0.0 7.0 0.00 0.54 0.34 96 998.8
20140728150548 71 161 2.0 6.0 0.00 0.57 0.34 96 998.9
20140728145506 70 304 2.0 4.0 0.00 0.59 0.34 99 998.8
20140728144007 69 355 1.0 4.0 0.00 0.59 0.34 99 998.8
20140728141004 68 242 0.0 2.0 0.01 0.59 0.34 99 999.1
20140728135547 68 242 0.0 1.0 0.01 0.59 0.34 100 999.3
20140728135505 68 242 0.0 1.0 0.01 0.59 0.34 100 999.3
20140728134549 68 242 0.0 1.0 0.01 0.59 0.34 99 999.4
20140728134001 67 242 0.0 1.0 0.01 0.59 0.34 99 999.4
20140728133549 68 242 0.0 1.0 0.01 0.59 0.34 100 999.5
20140728132901 67 242 0.0 2.0 0.01 0.59 0.34 100 999.5
20140728132547 67 242 0.0 0.0 0.01 0.58 0.33 100 999.5
20140728131547 67 242 0.0 0.0 0.03 0.58 0.33 100 999.5
20140728130548 67 242 0.0 0.0 0.04 0.58 0.33 100 999.5
20140728124548 67 242 0.0 3.0 0.25 0.58 0.33 100 999.5
20140728123548 67 10 0.0 3.0 0.29 0.58 0.33 100 999.4
20140728122549 66 72 1.0 3.0 0.32 0.57 0.32 100 999.3
20140728122511 66 72 0.0 3.0 0.32 0.56 0.32 100 999.3
20140728121548 66 330 1.0 3.0 0.30 0.55 0.30 99 999.7
20140728120909 65 333 0.0 3.0 0.30 0.55 0.30 99 999.6
20140728115404 65 344 0.0 3.0 0.15 0.40 0.15 99 1000.0
20140728114548 66 245 0.0 3.0 0.08 0.33 0.08 99 999.8
20140728113807 65 247 0.0 3.0 0.06 0.31 0.06 99 1000.0
20140728112303 65 165 1.0 4.0 0.00 0.25 0.00 100 1000.2
20140728110805 65 36 0.0 2.0 0.00 0.25 0.00 99 1000.9
20140728110548 65 38 0.0 2.0 0.00 0.25 0.00 99 1000.9
20140728105548 65 24 0.0 5.0 0.00 0.25 0.00 99 1000.4
20140728105303 65 24 0.0 5.0 0.00 0.25 0.00 99 1000.3
20140728104548 65 333 0.0 2.0 0.00 0.25 0.00 99 1000.8
20140728103804 64 333 0.0 2.0 0.00 0.25 0.00 99 1000.8
20140728102302 64 268 0.0 0.0 0.00 0.25 0.00 99 1000.8
20140728101546 64 268 0.0 0.0 0.00 0.25 0.00 99 1000.9
20140728100902 64 268 0.0 0.0 0.00 0.25 0.00 99 1000.8
20140728100548 64 268 0.0 0.0 0.00 0.25 0.00 99 1000.7
20140728095314 64 268 0.0 0.0 0.00 0.25 0.00 99 1000.7
20140728093703 64 268 0.0 0.0 0.00 0.25 0.00 99 1000.9
20140728093548 64 268 0.0 1.0 0.00 0.25 0.00 99 1001.0
20140728092204 64 268 0.0 0.0 0.00 0.25 0.00 99 1001.2
20140728090704 64 268 0.0 0.0 0.00 0.25 0.00 99 1001.6
20140728085207 64 268 0.0 0.0 0.00 0.25 0.00 99 1001.4
20140728084550 65 268 0.0 0.0 0.00 0.25 0.00 99 1001.4
20140728083704 65 268 0.0 0.0 0.00 0.25 0.00 99 1001.5
20140728083549 65 268 0.0 0.0 0.00 0.25 0.00 99 1001.5
20140728082203 65 268 0.0 0.0 0.00 0.25 0.00 99 1001.7
20140728080701 65 268 0.0 0.0 0.00 0.25 0.00 99 1001.9
20140728080549 65 268 0.0 0.0 0.00 0.25 0.00 99 1001.9
20140728075548 65 268 0.0 0.0 0.00 0.25 0.00 99 1002.1
20140728075204 65 268 0.0 0.0 0.00 0.25 0.00 99 1002.1
20140728074549 65 268 0.0 0.0 0.00 0.25 0.00 99 1002.0
20140728073603 64 268 0.0 0.0 0.00 0.25 0.00 99 1002.0
20140728073549 65 268 0.0 0.0 0.00 0.25 0.00 99 1002.0
20140728072200 64 268 0.0 0.0 0.00 0.25 0.00 99 1002.1
20140728071651 65 268 0.0 0.0 0.00 0.25 0.00 99 1002.2
20140728070701 64 268 0.0 0.0 0.00 0.25 0.00 99 1002.3
20140728070655 65 268 0.0 0.0 0.00 0.25 0.00 99 1002.2
20140728065152 64 268 0.0 0.0 0.00 0.25 0.00 99 1002.2
20140728063700 64 268 0.0 0.0 0.00 0.25 0.00 99 1002.3
20140728062601 64 268 0.0 0.0 0.00 0.25 0.00 99 1002.6
20140728062200 64 268 0.0 0.0 0.00 0.25 0.00 99 1002.7
20140728060701 64 268 0.0 0.0 0.00 0.25 0.00 99 1002.5
20140728055201 64 268 0.0 0.0 0.00 0.25 0.00 99 1002.7
20140728053704 64 268 0.0 0.0 0.00 0.25 0.00 99 1003.2
20140728053559 64 268 0.0 0.0 0.00 0.25 0.00 99 1003.3
20140728052650 65 268 0.0 0.0 0.00 0.25 0.00 99 1003.3
20140728052007 64 268 0.0 0.0 0.00 0.25 0.00 99 1003.3
20140728051558 65 268 0.0 0.0 0.00 0.25 0.00 99 1003.3
20140728050504 64 268 0.0 0.0 0.00 0.25 0.00 99 1003.3
20140728045605 65 268 0.0 0.0 0.00 0.25 0.00 99 1003.4
20140728045002 64 268 0.0 0.0 0.00 0.25 0.00 99 1003.4
20140728044653 65 268 0.0 0.0 0.00 0.25 0.00 99 1003.5
20140728043503 64 268 0.0 0.0 0.00 0.25 0.00 98 1003.5
20140728042006 64 268 0.0 0.0 0.00 0.25 0.00 98 1003.6
20140728040505 64 268 0.0 0.0 0.00 0.25 0.00 98 1003.7
20140728035548 65 268 0.0 0.0 0.00 0.25 0.25 98 1003.8
20140728035006 65 268 0.0 0.0 0.00 0.25 0.25 98 1003.6
20140728034547 65 268 0.0 0.0 0.00 0.25 0.25 98 1003.5
20140728033707 65 268 0.0 0.0 0.00 0.25 0.25 98 1003.6
20140728032548 66 268 0.0 0.0 0.00 0.25 0.25 98 1003.5
20140728032104 65 268 0.0 0.0 0.00 0.25 0.25 98 1003.6
20140728031548 66 268 0.0 0.0 0.00 0.25 0.25 98 1003.6
20140728030549 66 268 0.0 0.0 0.00 0.25 0.25 98 1003.9
20140728030403 66 268 0.0 0.0 0.00 0.25 0.25 98 1003.9
20140728025547 67 268 0.0 0.0 0.00 0.25 0.25 98 1004.0
20140728024907 66 268 0.0 0.0 0.00 0.25 0.25 98 1004.1
20140728023406 67 268 0.0 0.0 0.00 0.25 0.25 98 1004.0
20140728022548 68 268 0.0 0.0 0.00 0.25 0.25 98 1004.0
20140728021906 67 268 0.0 0.0 0.00 0.25 0.25 98 1004.0
20140728020547 68 268 0.0 2.0 0.00 0.25 0.25 98 1003.9
20140728020403 68 268 0.0 2.0 0.00 0.25 0.25 98 1003.9
20140728015548 68 268 0.0 2.0 0.00 0.25 0.25 98 1003.9
20140728014901 68 283 0.0 2.0 0.00 0.25 0.25 98 1003.8
20140728013414 68 307 0.0 2.0 0.00 0.25 0.25 98 1003.7
20140728011903 67 269 0.0 2.0 0.00 0.25 0.25 98 1003.9
20140728011548 68 269 0.0 1.0 0.00 0.25 0.25 98 1003.9
20140728010553 68 269 0.0 0.0 0.00 0.25 0.25 97 1003.8
20140728010403 67 269 0.0 0.0 0.00 0.25 0.25 97 1003.8
20140728004906 68 269 0.0 0.0 0.00 0.25 0.25 96 1004.1
20140728004548 68 269 0.0 0.0 0.00 0.25 0.25 96 1004.1
20140728003547 69 269 0.0 0.0 0.00 0.25 0.25 96 1004.1
20140728003303 68 269 0.0 0.0 0.00 0.25 0.25 96 1003.9
20140728002548 69 269 0.0 0.0 0.00 0.25 0.25 96 1003.9
20140728001801 69 269 0.0 0.0 0.00 0.25 0.25 96 1003.6
20140728000306 70 269 0.0 0.0 0.00 0.25 0.25 95 1003.3
20140727235548 71 269 0.0 0.0 0.00 0.25 0.25 95 1003.1
20140727234800 70 269 0.0 0.0 0.00 0.25 0.25 94 1003.2
20140727234547 71 269 0.0 0.0 0.00 0.25 0.25 94 1003.3
20140727233306 71 269 0.0 0.0 0.00 0.25 0.25 93 1003.2
20140727232547 72 269 0.0 1.0 0.00 0.25 0.25 92 1003.2
20140727231805 72 269 0.0 2.0 0.00 0.25 0.25 93 1003.3
20140727230548 72 271 0.0 2.0 0.00 0.25 0.25 92 1003.3
20140727230306 72 237 0.0 1.0 0.00 0.25 0.25 92 1003.3
20140727224701 71 239 0.0 2.0 0.00 0.25 0.25 93 1003.5
20140727223202 71 271 0.0 3.0 0.00 0.25 0.25 94 1003.4
20140727222547 71 202 0.0 0.0 0.00 0.25 0.25 94 1003.3
20140727221707 71 202 0.0 0.0 0.00 0.25 0.25 94 1003.4
20140727220207 71 202 0.0 2.0 0.00 0.25 0.25 93 1003.7
20140727214801 72 194 0.0 1.0 0.00 0.25 0.25 92 1003.1
20140727214547 73 194 0.0 0.0 0.00 0.25 0.25 91 1003.1
20140727213547 73 194 0.0 2.0 0.00 0.25 0.25 90 1003.7
20140727213203 73 198 0.0 2.0 0.00 0.25 0.25 90 1003.7
20140727211701 73 244 0.0 4.0 0.00 0.25 0.25 90 1003.4
20140727211548 74 35 0.0 2.0 0.00 0.25 0.25 89 1003.4
20140727210204 73 223 0.0 2.0 0.00 0.25 0.25 89 1003.8
20140727205547 74 155 0.0 2.0 0.00 0.25 0.25 89 1003.8
20140727204703 73 55 0.0 3.0 0.00 0.25 0.25 89 1003.5
20140727203546 73 233 1.0 5.0 0.00 0.25 0.25 89 1003.9
20140727203104 73 202 0.0 5.0 0.00 0.25 0.25 91 1003.8